Aeroporto :
LOGIN :

Iscrizione | Disclaimer

   EN    FR    IT 

 










Sommario :    VFR   VFR Marginale   IFR   IFR Intensivo   IFR Molto Intensivo
Visibilità : 
Base nubi : 
>= 8 km
>= 3000ft
5 / 8 km
1000 / 3000 ft
1500m / 5 km
500 / 1000 ft
800 / 1500m
200 / 500 ft
< 800m
< 200 ft
Simboli :   Temporali  Nebbia  Neve Forte  Precipitazioni Forti  Vento > 20 kt
SIGMETs :   Varie  Temporali  Ghiacco  Turbolenza  Onda orograficha  Ceneri Vulcaniche







- Altitudine del aeroporto : 56 ft
- Codice IATA : BZR
- Carte del aeroporto


LFMU - Beziers / Vias

ULTIMO METAR :
  • 190600Z AUTO 03010KT CAVOK 20/14 Q1012 NOSIG

METARs OBSOLETI :
  • 190530Z AUTO 02010KT CAVOK 19/14 Q1012 NOSIG
  • 190500Z AUTO 02009KT CAVOK 18/14 Q1012 NOSIG
  • 190430Z AUTO 01008KT CAVOK 17/14 Q1012 NOSIG
  • 190400Z AUTO 03008KT CAVOK 17/14 Q1011 NOSIG

TAF TAF LFMU
Valido dal 19 a 03 ore il 20 a 03 ore UTC


190200Z 1903/2003 04008KT CAVOK
BECMG 1910/1912 14012KT
BECMG 1917/1919 VRB04KT
TEMPO 1917/2003 BKN010
ATIS : +33 4 67 90 88 88
Nessun NOTAM noto per questo aeroporto.



MetMap, La meteo Aeronautica in un colpo d'occhio ! - Copyright ORBIFLY Dicembre 2007 - Disclaimer

ORBIFLY MET'MAP TEAM :

Programmazione e sviluppo : Alexandra Zaïnal
Concezione e sviluppo : Baudouin d'Aumeries
Co-Programmazione e sviluppo : Marc-Olivier Méhu
Supporto tecnico e logistico : Manuel Goepfert
Aiuto per la traduzione : Arnaldo La Scala

Contatto : metmap@orbifly.com




FONTI E CREDITI :

   NOAA